Weather Roundup
Issued by NWS Chicago, IL

Home | Current Version | Previous Version | Text Only | Print | Product List | Glossary On
Versions: 1 2 3 4 5 6 7 8 9 10 11 12 13 14 15 16 17 18 19 20 21 22 23 24 25 26 27 28 29 30 31 32 33 34 35 36 37 38 39 40 41 42 43 44 45 46 47 48 49 50
737
NZUS59 KLOT 220909
HRRLOT

CHICAGO AREA WEATHER ROUNDUP
NATIONAL WEATHER SERVICE CHICAGO/ROMEOVILLE IL
400 AM CDT SUN OCT 22 2017

NOTE: "FAIR" INDICATES FEW OR NO CLOUDS BELOW 12,000 FEET WITH NO
SIGNIFICANT WEATHER AND/OR OBSTRUCTIONS TO VISIBILITY.

* THESE STATIONS ARE NOT UNDER NWS QUALITY CONTROL. THEY ALSO MAY NOT
  REPORT WEATHER SUCH AS PRECIPITATION OR FOG.

ILZ005-006-012>014-019>023-221000-
NORTHEAST ILLINOIS

CITY           SKY/WX    TMP DP  RH WIND       PRES   REMARKS
OHARE          CLOUDY    67  56  67 S17       29.94F
MIDWAY         MOCLDY    67  56  67 S14       29.95F
AURORA         CLOUDY    66  57  72 S12G23    29.93F
LANSING*       MOCLDY    63  55  77 S10       29.98F
JOLIET*        CLOUDY    68  59  73 S10       29.95S
WAUKEGAN       CLOUDY    68  57  68 S17       29.92F
DUPAGE AIRPORT CLOUDY    67  58  72 S14       29.94F
WHEELING       PTCLDY    67  58  72 S12       29.95F
KANKAKEE*      CLEAR     66  56  70 S13G20    29.97F
MORRIS*        MOCLDY    66  57  73 S10G20    29.92F
LEWIS AIRPORT* CLOUDY    66  57  74 S13       29.95F
NORTHERLY ISL    N/A     65  52  62 SE9         N/A
$$

WIZ051-052-058>065-066-070>072-221000-
SOUTHEAST WISCONSIN

CITY           SKY/WX    TMP DP  RH WIND       PRES   REMARKS
MILWAUKEE      CLOUDY    68  56  65 S12       29.92F
KENOSHA*       CLOUDY    67  55  65 S15       29.92F
RACINE*        CLOUDY    61  55  81 S10       29.94F
BURLINGTON     CLOUDY    66  58  75 S8        29.91F
WAUKESHA       CLOUDY    64  54  68 S9        29.92F
WEST BEND      MOCLDY    64  54  68 S9        29.90F
$$

INZ001>003-010>013-019-020-221000-
NORTHWEST INDIANA

CITY           SKY/WX    TMP DP  RH WIND       PRES   REMARKS
GARY*          PTCLDY    65  51  60 SE10G17   29.98F
MICHIGAN CITY* NOT AVBL
RENSSELAER*    NOT AVBL
VALPARAISO     CLOUDY    66  53  63 S10       30.02F
$$

LMZ740>746-221000-
SOUTHERN LAKE MICHIGAN

STATION/POSITION TIME  SKY/WX   TEMP WIND        PRES    VSBY
                                AIR  DIR/SP/G
                 (UTC)          (F)  (DEG/KT/KT) (MB)    (MI)
HARRISON CRIB    0840            64  180/ 15/ 16   N/A
BURNHAM HARBOR   0900            65  160/  9/ 13   N/A
CALUMET HARBOR   0848            65  170/  9/ 12 1014.2F
BURNS HARBOR     0840            66  170/ 11/ 21 1015.9F
MICHIGAN CITY    0840            65  150/ 13/ 17   N/A
$$

ABBREVIATIONS USED IN REMARKS
   TC - TEMPERATURE IN CELSIUS
  WCI - WIND CHILL INDEX
   HX - HEAT INDEX
  VSB - VISIBILITY
$$




USA.gov is the U.S. government's official web portal to all federal, state and local government web resources and services.